Epoch,demod_status_bits,ebno,lock_status,signal_level,viterbi_ber
1664951604,C;S;V;F,12.8,0x00c000,-39.0,2.11e-6
1664951605,C;S;V;F,12.8,0x00c000,-38.9,6.06e-7
1664951606,C;S;V;F,11.8,0x00c000,-39.6,1.96e-6
1664951607,C;S;V;F,12.8,0x00c000,-38.8,2.87e-6
1664951608,C;S;V;F,12.4,0x00c000,-39.5,1.21e-6
1664951609,C;S;V;F,13.0,0x00c000,-38.6,1.21e-6
1664951610,C;S;V;F,13.0,0x00c000,-38.7,3.03e-7
1664951611,C;S;V;F,12.8,0x00c000,-38.7,1.51e-7
1664951612,C;S;V;F,13.1,0x00c000,-38.6,3.03e-7
1664951613,,13.2,0x00c000,-38.7,
1664951614,C;S;V;F,12.9,0x00c000,-38.7,0.00e-0
1664951615,C;S;V;F,13.5,0x00c000,-38.0,1.51e-7
1664951616,C;S;V;F,13.4,0x00c000,-38.3,1.51e-7
1664951617,C;S;V;F,13.3,0x00c000,-38.4,0.00e-0
1664951618,C;S;V;F,,0x00c000,-38.3,0.00e-0
1664951619,C;S;V;F,13.3,0x00c000,-38.7,0.00e-0
1664951620,C;S;V;F,13.2,0x00c000,-38.1,1.51e-7
1664951621,C;S;V;F,13.6,0x00c000,,1.51e-7
1664951622,C;S;V;F,13.8,0x00c000,-37.9,0.00e-0
1664951623,C;S;V;F,13.8,0x00c000,-37.9,0.00e-0
1664951624,C;S;V;F,13.9,0x00c000,-37.9,0.00e-0
1664951625,C;S;V;F,14.0,0x00c000,-37.8,0.00e-0
1664951626,C;S;V;F,13.9,0x00c000,-37.9,0.00e-0
1664951627,,14.2,0x00c000,-37.5,
1664951628,C;S;V;F,,0x00c000,-37.8,0.00e-0
1664951629,C;S;V;F,14.1,0x00c000,-37.3,0.00e-0
1664951630,C;S;V;F,14.2,0x00c000,,0.00e-0
1664951631,C;S;V;F,14.4,0x00c000,-37.2,0.00e-0
1664951632,C;S;V;F,14.7,0x00c000,-37.1,0.00e-0
1664951633,C;S;V;F,14.4,0x00c000,-37.2,0.00e-0
1664951634,C;S;V;F,14.5,0x00c000,-37.3,0.00e-0
1664951635,C;S;V;F,14.6,0x00c000,-37.3,0.00e-0
1664951636,,14.7,0x00c000,-37.3,
1664951637,C;S;V;F,14.5,0x00c000,-37.1,0.00e-0
1664951638,C;S;V;F,14.8,0x00c000,-37.1,0.00e-0
1664951639,C;S;V;F,,0x00c000,-37.2,0.00e-0
1664951640,C;S;V;F,14.7,0x00c000,-37.1,0.00e-0
1664951641,C;S;V;F,14.7,0x00c000,,0.00e-0
1664951642,C;S;V;F,15.1,0x00c000,-37.0,0.00e-0
1664951643,C;S;V;F,14.5,0x00c000,-37.5,0.00e-0
1664951644,C;S;V;F,14.8,0x00c000,-37.1,0.00e-0
1664951646,,14.9,0x00c000,-37.2,
1664951647,C;S;V;F,,0x00c000,-37.1,0.00e-0
1664951648,C;S;V;F,14.9,0x00c000,-37.4,0.00e-0
1664951649,C;S;V;F,14.5,0x00c000,-37.3,0.00e-0
1664951650,C;S;V;F,14.6,0x00c000,,0.00e-0
1664951651,C;S;V;F,14.7,0x00c000,-37.4,0.00e-0
1664951652,C;S;V;F,14.8,0x00c000,-37.1,0.00e-0
1664951653,C;S;V;F,14.8,0x00c000,-37.2,0.00e-0
1664951654,C;S;V;F,14.7,0x00c000,-37.2,0.00e-0
1664951655,C;S;V;F,15.0,0x00c000,-37.2,0.00e-0
1664951656,C;S;V;F,14.7,0x00c000,-37.3,0.00e-0
1664951657,C;S;V;F,14.8,0x00c000,-37.2,
1664951658,,14.8,0x00c000,-37.1,0.00e-0
1664951659,C;S;V;F,14.7,0x00c000,-36.9,0.00e-0
1664951660,C;S;V;F,15.1,0x00c000,-36.8,0.00e-0
1664951661,C;S;V;F,,0x00c000,-37.1,0.00e-0
1664951662,C;S;V;F,14.9,0x00c000,-37.0,0.00e-0
1664951663,C;S;V;F,14.9,0x00c000,-37.0,0.00e-0
1664951664,C;S;V;F,14.9,0x00c000,,0.00e-0
1664951665,C;S;V;F,15.2,0x00c000,-36.8,0.00e-0
1664951666,C;S;V;F,15.1,0x00c000,-36.8,0.00e-0
1664951667,C;S;V;F,15.1,0x00c000,-37.1,0.00e-0
1664951668,,15.2,0x00c000,-36.8,
1664951669,C;S;V;F,14.9,0x00c000,-36.8,0.00e-0
1664951670,C;S;V;F,15.1,0x00c000,-36.8,0.00e-0
1664951671,C;S;V;F,,0x00c000,-36.8,0.00e-0
1664951672,C;S;V;F,15.1,0x00c000,-36.7,0.00e-0
1664951673,C;S;V;F,15.1,0x00c000,,0.00e-0
1664951674,C;S;V;F,15.3,0x00c000,-36.8,0.00e-0
1664951675,C;S;V;F,15.3,0x00c000,-36.5,0.00e-0
1664951676,C;S;V;F,15.2,0x00c000,-36.8,0.00e-0
1664951677,C;S;V;F,15.2,0x00c000,-36.6,0.00e-0
1664951678,C;S;V;F,15.2,0x00c000,-36.7,
1664951679,,15.4,0x00c000,-36.8,0.00e-0
1664951680,C;S;V;F,15.5,0x00c000,-36.8,0.00e-0
1664951681,C;S;V;F,15.4,0x00c000,-36.6,0.00e-0
1664951682,C;S;V;F,,0x00c000,-36.7,0.00e-0
1664951683,C;S;V;F,15.5,0x00c000,-36.8,0.00e-0
1664951684,C;S;V;F,15.1,0x00c000,-36.5,0.00e-0
1664951685,C;S;V;F,15.4,0x00c000,,0.00e-0
1664951686,C;S;V;F,15.5,0x00c000,-36.6,0.00e-0
1664951687,C;S;V;F,15.6,0x00c000,-36.5,0.00e-0
1664951688,C;S;V;F,15.6,0x00c000,-36.4,0.00e-0
1664951689,C;S;V;F,15.7,0x00c000,-36.4,0.00e-0
1664951690,C;S;V;F,15.3,0x00c000,-36.4,0.00e-0
1664951691,C;S;V;F,15.8,0x00c000,-36.4,0.00e-0
1664951692,C;S;V;F,15.7,0x00c000,-36.4,0.00e-0
1664951693,C;S;V;F,15.5,0x00c000,-36.4,0.00e-0
1664951694,C;S;V;F,15.6,0x00c000,-36.4,0.00e-0
1664951695,C;S;V;F,16.0,0x00c000,-36.2,0.00e-0
1664951696,C;S;V;F,15.5,0x00c000,-36.3,
1664951697,,15.7,0x00c000,-36.3,0.00e-0
1664951698,C;S;V;F,15.9,0x00c000,-36.2,0.00e-0
1664951699,C;S;V;F,16.0,0x00c000,-35.9,0.00e-0
1664951700,C;S;V;F,15.7,0x00c000,-36.0,0.00e-0
1664951701,C;S;V;F,15.7,0x00c000,-35.9,0.00e-0
1664951702,C;S;V;F,,0x00c000,,0.00e-0
1664951703,C;S;V;F,15.9,0x00c000,-35.8,0.00e-0
1664951704,C;S;V;F,16.4,0x00c000,-35.6,0.00e-0
1664951705,C;S;V;F,16.2,0x00c000,-35.5,0.00e-0
1664951706,C;S;V;F,16.4,0x00c000,-35.6,0.00e-0
1664951709,C;S;V;F,16.3,0x00c000,-35.4,0.00e-0
1664951710,,16.6,0x00c000,-35.3,
1664951711,C;S;V;F,16.5,0x00c000,-35.1,0.00e-0
1664951712,C;S;V;F,16.7,0x00c000,-35.2,0.00e-0
1664951713,C;S;V;F,16.7,0x00c000,-35.3,0.00e-0
1664951714,C;S;V;F,,0x00c000,,0.00e-0
1664951715,C;S;V;F,16.8,0x00c000,-35.2,0.00e-0
1664951716,C;S;V;F,16.9,0x00c000,-34.9,0.00e-0
1664951717,C;S;V;F,16.8,0x00c000,-35.2,0.00e-0
1664951718,C;S;V;F,16.8,0x00c000,-35.0,0.00e-0
1664951719,C;S;V;F,16.7,0x00c000,-35.0,0.00e-0
1664951723,C;S;V;F,16.9,0x00c000,-35.2,0.00e-0
1664951724,C;S;V;F,16.8,0x00c000,-35.2,
1664951725,,16.7,0x00c000,-35.0,0.00e-0
1664951726,C;S;V;F,16.8,0x00c000,-35.1,0.00e-0
1664951727,C;S;V;F,16.8,0x00c000,-35.1,0.00e-0
1664951728,C;S;V;F,,0x00c000,-35.0,0.00e-0
1664951729,C;S;V;F,17.1,0x00c000,,0.00e-0
1664951730,C;S;V;F,16.9,0x00c000,-35.0,0.00e-0
1664951731,C;S;V;F,16.8,0x00c000,-35.0,0.00e-0
1664951732,C;S;V;F,16.9,0x00c000,-34.9,0.00e-0
1664951733,C;S;V;F,17.0,0x00c000,-34.9,0.00e-0
1664951734,C;S;V;F,17.1,0x00c000,-34.8,0.00e-0
1664951735,C;S;V;F,16.7,0x00c000,-35.0,0.00e-0
1664951736,C;S;V;F,17.0,0x00c000,-35.0,
1664951737,,17.0,0x00c000,-35.0,0.00e-0
1664951738,C;S;V;F,16.8,0x00c000,-35.1,0.00e-0
1664951739,C;S;V;F,17.1,0x00c000,-35.1,0.00e-0
1664951740,C;S;V;F,,0x00c000,-35.1,0.00e-0
1664951741,C;S;V;F,17.2,0x00c000,-35.1,0.00e-0
1664951742,C;S;V;F,16.7,0x00c000,,0.00e-0
1664951743,C;S;V;F,16.8,0x00c000,-35.0,0.00e-0
1664951744,C;S;V;F,16.8,0x00c000,-34.9,0.00e-0
1664951745,C;S;V;F,16.8,0x00c000,-35.2,0.00e-0
1664951746,C;S;V;F,16.7,0x00c000,-35.2,0.00e-0
1664951747,C;S;V;F,16.5,0x00c000,-35.1,0.00e-0
1664951748,C;S;V;F,16.6,0x00c000,-35.4,0.00e-0
1664951749,C;S;V;F,16.5,0x00c000,-35.3,
1664951750,C;S;V;F,16.6,0x00c000,-35.3,0.00e-0
1664951751,,16.8,0x00c000,-35.2,0.00e-0
1664951752,C;S;V;F,16.8,0x00c000,-35.3,0.00e-0
1664951753,C;S;V;F,16.5,0x00c000,-35.4,0.00e-0
1664951754,C;S;V;F,16.4,0x00c000,-35.3,0.00e-0
1664951755,C;S;V;F,,0x00c000,-35.6,0.00e-0
1664951756,C;S;V;F,16.5,0x00c000,,0.00e-0
1664951757,C;S;V;F,16.1,0x00c000,-35.6,0.00e-0
1664951758,C;S;V;F,16.3,0x00c000,-35.6,0.00e-0
1664951759,C;S;V;F,16.3,0x00c000,-36.0,0.00e-0
1664951760,C;S;V;F,16.0,0x00c000,-36.1,0.00e-0
1664951761,C;S;V;F,15.9,0x00c000,-36.3,0.00e-0
1664951762,C;S;V;F,15.6,0x00c000,-36.4,0.00e-0
1664951763,C;S;V;F,16.0,0x00c000,-36.3,0.00e-0
1664951764,C;S;V;F,15.8,0x00c000,-36.4,0.00e-0
1664951765,C;S;V;F,16.1,0x00c000,-36.1,0.00e-0
1664951766,C;S;V;F,15.9,0x00c000,-36.4,
1664951767,C;S;V;F,16.0,0x00c000,-36.4,0.00e-0
1664951768,,16.0,0x00c000,-36.5,0.00e-0
1664951769,C;S;V;F,15.7,0x00c000,-36.6,0.00e-0
1664951770,C;S;V;F,,,,0.00e-0
1664951772,C;S;V;F,15.6,0x00c000,-36.6,0.00e-0
1664951773,C;S;V;F,15.6,0x00c000,-36.8,0.00e-0
1664951774,C;S;V;F,15.4,0x00c000,-37.0,0.00e-0
1664951775,C;S;V;F,15.2,0x00c000,-37.1,0.00e-0
1664951776,C;S;V;F,15.3,0x00c000,-36.9,
1664951777,C;S;V;F,15.3,0x00c000,-36.9,0.00e-0
1664951778,,15.2,0x00c000,-36.9,0.00e-0
1664951779,C;S;V;F,15.1,0x00c000,-37.0,0.00e-0
1664951780,C;S;V;F,15.4,0x00c000,-36.9,0.00e-0
1664951781,C;S;V;F,,0x00c000,-37.0,0.00e-0
1664951782,C;S;V;F,15.4,0x00c000,-36.9,0.00e-0
1664951783,C;S;V;F,15.4,0x00c000,,0.00e-0
1664951784,C;S;V;F,15.2,0x00c000,-37.1,0.00e-0
1664951785,C;S;V;F,15.3,0x00c000,-37.2,0.00e-0
1664951786,C;S;V;F,15.0,0x00c000,-37.5,0.00e-0
1664951787,C;S;V;F,14.9,0x00c000,-37.9,0.00e-0
1664951788,C;S;V;F,14.6,0x00c000,-37.9,0.00e-0
1664951789,C;S;V;F,14.6,0x00c000,-38.0,0.00e-0
1664951790,C;S;V;F,14.7,0x00c000,-37.9,0.00e-0
1664951791,C;S;V;F,14.7,0x00c000,-37.6,0.00e-0
1664951792,C;S;V;F,14.7,0x00c000,-37.5,0.00e-0
1664951793,C;S;V;F,14.9,0x00c000,-37.4,
1664951794,,15.4,0x00c000,-37.2,0.00e-0
1664951795,C;S;V;F,15.3,0x00c000,-37.1,0.00e-0
1664951796,C;S;V;F,15.3,0x00c000,-37.1,0.00e-0
1664951797,C;S;V;F,,0x00c000,-37.1,0.00e-0
1664951798,C;S;V;F,15.3,0x00c000,-37.0,0.00e-0
1664951799,C;S;V;F,15.2,0x00c000,-36.8,0.00e-0
1664951800,C;S;V;F,15.2,0x00c000,,0.00e-0
1664951801,C;S;V;F,15.3,0x00c000,-37.1,0.00e-0
1664951802,C;S;V;F,15.3,0x00c000,-37.1,0.00e-0
1664951803,C;S;V;F,15.5,0x00c000,-36.8,0.00e-0
1664951804,C;S;V;F,15.7,0x00c000,-36.7,0.00e-0
1664951805,C;S;V;F,15.7,0x00c000,-36.6,0.00e-0
1664951806,C;S;V;F,15.7,0x00c000,-36.4,0.00e-0
1664951807,C;S;V;F,15.7,0x00c000,-36.4,
1664951808,,16.3,0x00c000,-36.1,0.00e-0
1664951809,C;S;V;F,16.2,0x00c000,-36.2,0.00e-0
1664951810,C;S;V;F,16.2,0x00c000,-36.0,0.00e-0
1664951811,C;S;V;F,16.3,0x00c000,-36.1,0.00e-0
1664951812,C;S;V;F,16.3,0x00c000,-36.0,0.00e-0
1664951813,C;S;V;F,,0x00c000,-36.0,0.00e-0
1664951814,C;S;V;F,16.2,0x00c000,-35.9,0.00e-0
1664951815,C;S;V;F,16.3,0x00c000,,0.00e-0
1664951816,C;S;V;F,16.4,0x00c000,-35.8,0.00e-0
1664951817,C;S;V;F,16.2,0x00c000,-35.7,0.00e-0
1664951818,C;S;V;F,16.3,0x00c000,-35.5,0.00e-0
1664951819,C;S;V;F,16.6,0x00c000,-35.6,0.00e-0
1664951820,C;S;V;F,16.4,0x00c000,-35.6,0.00e-0
1664951821,C;S;V;F,16.5,0x00c000,-35.6,0.00e-0
1664951822,C;S;V;F,16.5,0x00c000,-35.7,0.00e-0
1664951823,C;S;V;F,16.5,0x00c000,-35.7,0.00e-0
1664951824,C;S;V;F,16.2,0x00c000,-36.0,0.00e-0
1664951825,C;S;V;F,16.2,0x00c000,-36.0,0.00e-0
1664951826,C;S;V;F,16.2,0x00c000,-36.1,
1664951827,,15.9,0x00c000,-36.2,0.00e-0
1664951828,C;S;V;F,16.0,0x00c000,-36.2,0.00e-0
1664951829,C;S;V;F,16.2,0x00c000,-36.0,0.00e-0
1664951830,C;S;V;F,16.2,0x00c000,-36.0,0.00e-0
1664951831,C;S;V;F,16.1,0x00c000,-36.1,0.00e-0
1664951832,C;S;V;F,,0x00c000,,0.00e-0
1664951833,,,0x00c000,-36.0,
1664951834,C;S;V;F,16.2,0x00c000,,0.00e-0
1664951835,C;S;V;F,16.2,0x00c000,-36.0,0.00e-0
1664951836,C;S;V;F,16.2,0x00c000,-35.8,0.00e-0
1664951837,C;S;V;F,16.3,0x00c000,-35.8,0.00e-0
1664951838,C;S;V;F,16.3,0x00c000,-35.9,0.00e-0
1664951839,C;S;V;F,16.4,0x00c000,-35.8,0.00e-0
1664951840,C;S;V;F,16.1,0x00c000,-36.1,0.00e-0
1664951841,C;S;V;F,16.2,0x00c000,-36.1,0.00e-0
1664951842,C;S;V;F,16.1,0x00c000,-36.2,
1664951843,,16.2,0x00c000,-36.1,0.00e-0
1664951844,C;S;V;F,16.1,0x00c000,-36.4,0.00e-0
1664951845,C;S;V;F,16.0,0x00c000,-36.0,0.00e-0
1664951846,C;S;V;F,,0x00c000,-36.0,0.00e-0
1664951847,C;S;V;F,16.4,0x00c000,-36.0,0.00e-0
1664951848,C;S;V;F,16.2,0x00c000,,0.00e-0
1664951849,C;S;V;F,16.5,0x00c000,-36.0,0.00e-0
1664951850,C;S;V;F,16.2,0x00c000,-36.0,0.00e-0
1664951851,C;S;V;F,16.0,0x00c000,-36.3,0.00e-0
1664951852,C;S;V;F,16.1,0x00c000,-36.0,0.00e-0
1664951853,C;S;V;F,16.1,0x00c000,-36.3,0.00e-0
1664951854,C;S;V;F,16.2,0x00c000,-36.0,0.00e-0
1664951855,C;S;V;F,16.4,0x00c000,-36.0,0.00e-0
1664951856,C;S;V;F,16.3,0x00c000,-35.8,
1664951857,,16.4,0x00c000,-35.6,0.00e-0
1664951858,C;S;V;F,16.5,0x00c000,-35.6,0.00e-0
1664951859,C;S;V;F,16.3,0x00c000,-35.7,0.00e-0
1664951860,C;S;V;F,16.2,0x00c000,-36.2,0.00e-0
1664951861,C;S;V;F,,0x00c000,-36.4,0.00e-0
1664951862,C;S;V;F,16.0,0x00c000,-36.4,0.00e-0
1664951863,C;S;V;F,15.9,0x00c000,,0.00e-0
1664951864,C;S;V;F,15.8,0x00c000,-36.5,0.00e-0
1664951865,C;S;V;F,15.7,0x00c000,-36.4,0.00e-0
1664951866,C;S;V;F,15.6,0x00c000,-36.6,0.00e-0
1664951867,C;S;V;F,15.8,0x00c000,-36.5,0.00e-0
1664951868,C;S;V;F,15.8,0x00c000,-36.4,0.00e-0
1664951869,C;S;V;F,15.8,0x00c000,-36.4,0.00e-0
1664951870,C;S;V;F,15.8,0x00c000,-36.4,0.00e-0
1664951871,C;S;V;F,15.8,0x00c000,-36.4,
1664951872,,16.0,0x00c000,-36.4,0.00e-0
1664951873,C;S;V;F,15.5,0x00c000,-36.8,0.00e-0
1664951874,C;S;V;F,15.4,0x00c000,-36.8,0.00e-0
1664951875,C;S;V;F,15.2,0x00c000,-37.0,0.00e-0
1664951876,C;S;V;F,,0x00c000,-37.1,0.00e-0
1664951877,C;S;V;F,15.2,0x00c000,,0.00e-0
1664951878,C;S;V;F,15.1,0x00c000,-37.2,0.00e-0
1664951879,C;S;V;F,15.0,0x00c000,-37.2,0.00e-0
1664951880,C;S;V;F,15.0,0x00c000,-37.2,0.00e-0
1664951881,C;S;V;F,15.2,0x00c000,-37.1,0.00e-0
1664951882,C;S;V;F,15.1,0x00c000,-37.1,0.00e-0
1664951883,C;S;V;F,15.1,0x00c000,-37.4,0.00e-0
1664951884,C;S;V;F,14.7,0x00c000,-37.5,0.00e-0
1664951885,C;S;V;F,14.5,0x00c000,-37.9,0.00e-0
1664951886,C;S;V;F,14.2,0x00c000,-38.3,0.00e-0
1664951887,C;S;V;F,13.9,0x00c000,-38.4,0.00e-0
1664951888,C;S;V;F,13.7,0x00c000,-38.6,
1664951889,,13.5,0x00c000,-38.6,0.00e-0
1664951890,C;S;V;F,13.5,0x00c000,-38.4,0.00e-0
1664951891,C;S;V;F,,0x00c000,-38.7,0.00e-0
1664951892,C;S;V;F,13.3,0x00c000,-38.4,0.00e-0
1664951893,C;S;V;F,13.5,0x00c000,,0.00e-0
1664951894,C;S;V;F,13.4,0x00c000,-38.7,0.00e-0
1664951895,C;S;V;F,13.1,0x00c000,-38.8,0.00e-0
1664951897,,13.1,0x00c000,-38.9,
1664951898,C;S;V;F,13.0,0x00c000,-38.9,1.51e-7
1664951899,C;S;V;F,,0x00c000,-38.6,1.51e-7
1664951900,C;S;V;F,13.4,0x00c000,-38.5,0.00e-0
1664951901,C;S;V;F,13.3,0x00c000,-38.4,0.00e-0
1664951902,C;S;V;F,13.6,0x00c000,,0.00e-0
1664951903,C;S;V;F,13.8,0x00c000,-38.0,0.00e-0
1664951904,C;S;V;F,13.9,0x00c000,-38.0,0.00e-0
1664951905,C;S;V;F,13.8,0x00c000,-38.0,0.00e-0
1664951906,C;S;V;F,13.8,0x00c000,-38.0,0.00e-0
1664951907,C;S;V;F,13.7,0x00c000,-38.0,0.00e-0
1664951908,C;S;V;F,13.6,0x00c000,-38.1,0.00e-0
1664951909,C;S;V;F,13.6,0x00c000,-38.1,0.00e-0
1664951910,C;S;V;F,13.9,0x00c000,-38.0,0.00e-0
1664951911,C;S;V;F,14.0,0x00c000,-37.9,0.00e-0
1664951912,C;S;V;F,14.0,0x00c000,-37.8,
1664951913,,14.3,0x00c000,-37.6,0.00e-0
1664951914,C;S;V;F,14.0,0x00c000,-37.9,0.00e-0
1664951915,C;S;V;F,14.1,0x00c000,-37.8,0.00e-0
1664951916,C;S;V;F,,0x00c000,-37.8,0.00e-0
1664951917,C;S;V;F,14.3,0x00c000,-37.9,0.00e-0
1664951918,C;S;V;F,14.6,0x00c000,,0.00e-0
1664951919,C;S;V;F,14.4,0x00c000,-37.8,0.00e-0
1664951920,C;S;V;F,14.5,0x00c000,-37.8,0.00e-0
1664951921,C;S;V;F,14.5,0x00c000,-37.8,0.00e-0
1664951922,C;S;V;F,14.7,0x00c000,-37.6,0.00e-0
1664951923,C;S;V;F,15.0,0x00c000,-37.3,0.00e-0
1664951924,C;S;V;F,15.2,0x00c000,-37.2,0.00e-0
1664951925,C;S;V;F,15.6,0x00c000,-36.7,0.00e-0
1664951926,C;S;V;F,15.6,0x00c000,-36.4,0.00e-0
1664951927,,16.0,0x00c000,-36.4,
1664951928,C;S;V;F,16.0,0x00c000,-36.3,0.00e-0
1664951929,C;S;V;F,16.2,0x00c000,-36.2,0.00e-0
1664951930,C;S;V;F,,0x00c000,-36.4,0.00e-0
1664951931,C;S;V;F,15.9,0x00c000,,0.00e-0
1664951932,C;S;V;F,15.7,0x00c000,-36.6,0.00e-0
1664951933,C;S;V;F,15.7,0x00c000,-36.8,0.00e-0
1664951934,C;S;V;F,16.0,0x00c000,-36.7,0.00e-0
1664951935,C;S;V;F,16.0,0x00c000,-36.4,0.00e-0
1664951936,C;S;V;F,16.0,0x00c000,-36.1,0.00e-0
1664951937,C;S;V;F,16.4,0x00c000,-35.6,
1664951938,,16.6,0x00c000,-35.6,0.00e-0
1664951939,C;S;V;F,16.7,0x00c000,-35.5,0.00e-0
1664951940,C;S;V;F,17.1,0x00c000,-35.2,0.00e-0
1664951941,C;S;V;F,17.0,0x00c000,-35.1,0.00e-0
1664951942,C;S;V;F,,0x00c000,-34.9,0.00e-0
1664951943,C;S;V;F,17.0,0x00c000,,0.00e-0
1664951944,C;S;V;F,17.1,0x00c000,-34.8,0.00e-0
1664951945,C;S;V;F,17.3,0x00c000,-34.7,0.00e-0
1664951946,C;S;V;F,17.3,0x00c000,-34.6,0.00e-0
1664951947,C;S;V;F,17.3,0x00c000,-34.7,0.00e-0
1664951948,C;S;V;F,17.3,0x00c000,-34.8,0.00e-0
1664951949,C;S;V;F,17.1,0x00c000,-35.2,0.00e-0
1664951950,C;S;V;F,16.7,0x00c000,-35.2,0.00e-0
1664951951,C;S;V;F,17.0,0x00c000,-35.3,0.00e-0
1664951952,C;S;V;F,16.9,0x00c000,-35.2,0.00e-0
1664951953,C;S;V;F,16.9,0x00c000,-35.5,0.00e-0
1664951954,C;S;V;F,16.9,0x00c000,-35.1,0.00e-0
1664951955,C;S;V;F,17.1,0x00c000,-35.0,
1664951956,,17.0,0x00c000,-34.9,0.00e-0
1664951957,C;S;V;F,17.2,0x00c000,-35.1,0.00e-0
1664951958,C;S;V;F,,,,0.00e-0
1664951960,C;S;V;F,17.9,0x00c000,-34.4,0.00e-0
1664951961,C;S;V;F,17.8,0x00c000,-34.1,
1664951962,,17.9,0x00c000,-34.0,0.00e-0
1664951963,C;S;V;F,17.9,0x00c000,-34.0,0.00e-0
1664951964,C;S;V;F,,0x00c000,-34.0,0.00e-0
1664951965,C;S;V;F,17.7,0x00c000,-34.1,0.00e-0
1664951966,C;S;V;F,17.7,0x00c000,-34.3,0.00e-0
1664951967,C;S;V;F,17.6,0x00c000,,0.00e-0
1664951968,C;S;V;F,17.6,0x00c000,-34.4,0.00e-0
1664951969,C;S;V;F,17.7,0x00c000,-34.5,0.00e-0
1664951970,C;S;V;F,17.7,0x00c000,-34.5,0.00e-0
1664951971,C;S;V;F,17.5,0x00c000,-34.6,0.00e-0
1664951972,C;S;V;F,17.7,0x00c000,-34.4,0.00e-0
1664951973,C;S;V;F,17.6,0x00c000,-34.2,0.00e-0
1664951974,C;S;V;F,17.6,0x00c000,-34.0,
1664951975,,17.8,0x00c000,-34.0,0.00e-0
1664951976,C;S;V;F,17.9,0x00c000,-34.0,0.00e-0
1664951977,C;S;V;F,18.0,0x00c000,-33.9,0.00e-0
1664951978,C;S;V;F,,0x00c000,-33.6,0.00e-0
1664951979,C;S;V;F,17.9,0x00c000,-33.6,0.00e-0
1664951980,C;S;V;F,17.9,0x00c000,,0.00e-0
1664951981,C;S;V;F,18.0,0x00c000,-33.5,0.00e-0
1664951982,C;S;V;F,18.1,0x00c000,-33.5,0.00e-0
1664951983,C;S;V;F,18.1,0x00c000,-33.8,0.00e-0
1664951984,C;S;V;F,17.9,0x00c000,-33.7,0.00e-0
1664951985,C;S;V;F,17.8,0x00c000,-34.0,0.00e-0
1664951986,C;S;V;F,17.9,0x00c000,-34.0,0.00e-0
1664951987,C;S;V;F,17.7,0x00c000,-34.0,
1664951988,C;S;V;F,17.9,0x00c000,-34.3,0.00e-0
1664951989,,17.5,0x00c000,-34.4,0.00e-0
1664951990,C;S;V;F,17.7,0x00c000,-34.5,0.00e-0
1664951991,C;S;V;F,,0x00c000,-34.3,0.00e-0
1664951992,C;S;V;F,17.7,0x00c000,,0.00e-0
1664951993,C;S;V;F,17.5,0x00c000,-34.2,0.00e-0
1664951994,C;S;V;F,17.6,0x00c000,-34.3,0.00e-0
1664951995,C;S;V;F,17.6,0x00c000,-34.4,0.00e-0
1664951996,C;S;V;F,17.1,0x00c000,-34.7,0.00e-0
1664951997,C;S;V;F,17.1,0x00c000,-34.8,0.00e-0
1664951998,C;S;V;F,16.8,0x00c000,-35.0,0.00e-0
1664951999,C;S;V;F,17.0,0x00c000,-35.1,0.00e-0
1664952000,C;S;V;F,17.0,0x00c000,-35.1,0.00e-0
1664952001,C;S;V;F,16.8,0x00c000,-35.2,0.00e-0
1664952002,,16.8,0x00c000,-35.1,
1664952003,C;S;V;F,16.9,0x00c000,-35.2,0.00e-0
1664952004,C;S;V;F,,0x00c000,-35.4,0.00e-0
1664952005,C;S;V;F,17.0,0x00c000,-35.5,0.00e-0
1664952006,C;S;V;F,16.8,0x00c000,,0.00e-0
1664952007,C;S;V;F,16.5,0x00c000,-35.6,0.00e-0
1664952008,C;S;V;F,16.7,0x00c000,-35.6,0.00e-0
1664952009,C;S;V;F,16.7,0x00c000,-35.5,0.00e-0
1664952010,C;S;V;F,16.8,0x00c000,-35.2,0.00e-0
1664952011,C;S;V;F,16.8,0x00c000,-35.2,0.00e-0
1664952012,C;S;V;F,16.7,0x00c000,-35.3,0.00e-0
1664952013,C;S;V;F,16.6,0x00c000,-35.3,0.00e-0
1664952014,C;S;V;F,16.5,0x00c000,-35.5,0.00e-0
1664952015,C;S;V;F,16.5,0x00c000,-35.9,0.00e-0
1664952016,C;S;V;F,16.3,0x00c000,-35.9,
1664952017,,15.9,0x00c000,-36.3,0.00e-0
1664952018,C;S;V;F,15.9,0x00c000,-36.3,0.00e-0
1664952019,C;S;V;F,16.2,0x00c000,-36.2,0.00e-0
1664952020,C;S;V;F,,0x00c000,-35.9,0.00e-0
1664952021,C;S;V;F,16.2,0x00c000,,0.00e-0
1664952023,C;S;V;F,16.5,0x00c000,-35.8,0.00e-0
1664952026,C;S;V;F,16.2,0x00c000,-35.9,
1664952027,,16.2,0x00c000,-35.8,0.00e-0
1664952028,C;S;V;F,16.1,0x00c000,-36.0,0.00e-0
1664952029,C;S;V;F,16.3,0x00c000,-36.0,0.00e-0
1664952030,C;S;V;F,,0x00c000,-36.3,0.00e-0
1664952031,C;S;V;F,15.7,0x00c000,,0.00e-0
1664952032,C;S;V;F,15.8,0x00c000,-36.4,0.00e-0
1664952033,C;S;V;F,15.8,0x00c000,-36.2,0.00e-0
1664952034,C;S;V;F,16.2,0x00c000,-35.9,0.00e-0
1664952035,C;S;V;F,16.7,0x00c000,-35.6,0.00e-0
1664952036,C;S;V;F,16.7,0x00c000,-35.2,
1664952037,,16.9,0x00c000,-35.2,0.00e-0
1664952038,C;S;V;F,16.9,0x00c000,-35.2,0.00e-0
1664952039,C;S;V;F,17.0,0x00c000,-35.0,0.00e-0
1664952040,C;S;V;F,,0x00c000,-34.9,0.00e-0
1664952041,C;S;V;F,16.9,0x00c000,-35.0,0.00e-0
1664952042,C;S;V;F,17.0,0x00c000,,0.00e-0
1664952043,C;S;V;F,16.9,0x00c000,-35.1,0.00e-0
1664952044,C;S;V;F,16.8,0x00c000,-35.1,0.00e-0
1664952045,C;S;V;F,16.9,0x00c000,-35.1,0.00e-0
1664952046,C;S;V;F,16.3,0x00c000,-35.6,0.00e-0
1664952047,C;S;V;F,16.2,0x00c000,-36.1,0.00e-0
1664952048,C;S;V;F,15.8,0x00c000,-36.3,0.00e-0
1664952049,C;S;V;F,15.4,0x00c000,-36.8,0.00e-0
1664952050,C;S;V;F,15.6,0x00c000,-36.9,0.00e-0
1664952051,,,0x00c000,-36.6,
1664952052,C;S;V;F,15.6,0x00c000,,0.00e-0
1664952053,C;S;V;F,15.8,0x00c000,-36.3,0.00e-0
1664952054,C;S;V;F,16.4,0x00c000,-35.6,0.00e-0
1664952055,C;S;V;F,17.0,0x00c000,-35.2,0.00e-0
1664952056,C;S;V;F,16.7,0x00c000,-35.2,0.00e-0
1664952057,C;S;V;F,16.8,0x00c000,-35.2,0.00e-0
1664952058,C;S;V;F,16.7,0x00c000,-35.6,0.00e-0
1664952059,C;S;V;F,16.5,0x00c000,-35.7,
1664952060,,16.4,0x00c000,-35.7,0.00e-0
1664952061,C;S;V;F,16.5,0x00c000,-35.6,0.00e-0
1664952062,C;S;V;F,16.5,0x00c000,-35.7,0.00e-0
1664952063,C;S;V;F,16.6,0x00c000,-35.3,0.00e-0
1664952064,C;S;V;F,,0x00c000,-35.2,0.00e-0
1664952065,C;S;V;F,16.8,0x00c000,-35.1,0.00e-0
1664952066,C;S;V;F,16.9,0x00c000,,0.00e-0
1664952067,C;S;V;F,16.8,0x00c000,-35.1,0.00e-0
1664952068,C;S;V;F,16.7,0x00c000,-35.5,0.00e-0
1664952069,C;S;V;F,16.7,0x00c000,-35.5,0.00e-0
1664952070,C;S;V;F,16.6,0x00c000,-35.5,0.00e-0
1664952071,C;S;V;F,16.6,0x00c000,-35.7,0.00e-0
1664952072,C;S;V;F,16.4,0x00c000,-35.5,0.00e-0
1664952073,C;S;V;F,16.7,0x00c000,-35.3,0.00e-0
1664952074,C;S;V;F,16.8,0x00c000,-34.9,
1664952075,C;S;V;F,17.0,0x00c000,-34.8,0.00e-0
1664952076,,16.9,0x00c000,-35.1,0.00e-0
1664952077,C;S;V;F,16.8,0x00c000,-35.2,0.00e-0
1664952078,C;S;V;F,16.9,0x00c000,-35.2,0.00e-0
1664952079,C;S;V;F,,0x00c000,-35.6,0.00e-0
1664952080,C;S;V;F,16.6,0x00c000,-35.7,0.00e-0
1664952081,C;S;V;F,16.3,0x00c000,-35.8,0.00e-0
1664952082,C;S;V;F,16.6,0x00c000,,0.00e-0
1664952083,C;S;V;F,16.5,0x00c000,-35.6,0.00e-0
1664952085,,17.0,0x00c000,-34.9,
1664952086,C;S;V;F,,0x00c000,,0.00e-0
1664952087,C;S;V;F,16.8,0x00c000,-34.9,0.00e-0
1664952088,C;S;V;F,16.9,0x00c000,-34.8,0.00e-0
1664952089,C;S;V;F,16.8,0x00c000,-35.6,0.00e-0
1664952090,C;S;V;F,16.5,0x00c000,-35.7,0.00e-0
1664952091,C;S;V;F,16.5,0x00c000,-35.8,
1664952092,,16.1,0x00c000,-36.0,0.00e-0
1664952093,C;S;V;F,16.1,0x00c000,-35.9,0.00e-0
1664952094,C;S;V;F,16.1,0x00c000,-36.0,0.00e-0
1664952095,C;S;V;F,,0x00c000,-35.6,0.00e-0
1664952096,C;S;V;F,16.5,0x00c000,-35.6,0.00e-0
1664952097,C;S;V;F,16.3,0x00c000,,0.00e-0
1664952098,C;S;V;F,16.5,0x00c000,-35.5,0.00e-0
1664952099,C;S;V;F,16.5,0x00c000,-35.6,0.00e-0
1664952100,C;S;V;F,16.1,0x00c000,-35.8,0.00e-0
1664952101,C;S;V;F,16.2,0x00c000,-35.9,0.00e-0
1664952102,C;S;V;F,15.8,0x00c000,-36.3,0.00e-0
1664952103,C;S;V;F,15.8,0x00c000,-36.1,0.00e-0
1664952104,C;S;V;F,15.9,0x00c000,-36.2,0.00e-0
1664952105,C;S;V;F,16.0,0x00c000,-36.1,0.00e-0
1664952106,C;S;V;F,16.3,0x00c000,-35.6,
1664952107,,16.1,0x00c000,-35.7,0.00e-0
1664952108,C;S;V;F,16.5,0x00c000,-35.6,0.00e-0
1664952109,C;S;V;F,16.5,0x00c000,-35.6,0.00e-0
1664952110,C;S;V;F,,0x00c000,-35.7,0.00e-0
1664952111,C;S;V;F,16.6,0x00c000,-35.9,0.00e-0
1664952112,C;S;V;F,16.2,0x00c000,,0.00e-0
1664952113,C;S;V;F,16.2,0x00c000,-36.0,0.00e-0
1664952114,C;S;V;F,16.0,0x00c000,-36.3,0.00e-0
1664952115,C;S;V;F,15.8,0x00c000,-36.4,0.00e-0
1664952116,C;S;V;F,15.5,0x00c000,-36.7,0.00e-0
1664952117,C;S;V;F,15.5,0x00c000,-36.8,0.00e-0
1664952118,C;S;V;F,15.4,0x00c000,-36.8,0.00e-0
1664952119,C;S;V;F,15.6,0x00c000,-36.4,0.00e-0
1664952120,C;S;V;F,15.5,0x00c000,-36.3,
1664952121,,15.4,0x00c000,-36.4,0.00e-0
1664952122,C;S;V;F,15.5,0x00c000,-36.3,0.00e-0
1664952123,C;S;V;F,,0x00c000,-36.4,0.00e-0
1664952124,C;S;V;F,15.6,0x00c000,-36.7,0.00e-0
1664952125,C;S;V;F,15.4,0x00c000,,0.00e-0
1664952126,C;S;V;F,15.4,0x00c000,-36.4,0.00e-0
1664952127,C;S;V;F,15.3,0x00c000,-36.7,0.00e-0
1664952128,C;S;V;F,15.4,0x00c000,-36.7,0.00e-0
1664952129,C;S;V;F,15.3,0x00c000,-36.7,0.00e-0
1664952130,C;S;V;F,15.3,0x00c000,-36.7,0.00e-0
1664952131,C;S;V;F,15.3,0x00c000,-36.6,0.00e-0
1664952132,C;S;V;F,15.3,0x00c000,-36.8,0.00e-0
1664952133,C;S;V;F,15.2,0x00c000,-36.9,0.00e-0
1664952134,C;S;V;F,15.1,0x00c000,-36.9,
1664952135,,15.2,0x00c000,-37.1,0.00e-0
1664952136,C;S;V;F,15.1,0x00c000,-37.0,0.00e-0
1664952137,C;S;V;F,14.8,0x00c000,-37.2,0.00e-0
1664952138,C;S;V;F,,0x00c000,-37.5,0.00e-0
1664952139,C;S;V;F,14.7,0x00c000,-37.6,0.00e-0
1664952140,C;S;V;F,14.8,0x00c000,,0.00e-0
1664952141,C;S;V;F,14.5,0x00c000,-37.6,0.00e-0
1664952142,C;S;V;F,14.4,0x00c000,-37.6,0.00e-0
1664952143,C;S;V;F,14.3,0x00c000,-37.8,0.00e-0
1664952144,C;S;V;F,14.5,0x00c000,-37.4,0.00e-0
1664952145,C;S;V;F,15.0,0x00c000,-37.2,0.00e-0
1664952146,C;S;V;F,15.2,0x00c000,-37.0,0.00e-0